GEFSMW_con_prob3kmehi_234.txt.gz
EHI
15 17 21 25 25 23 23 22 22 20 18 15 13 10 6 4 6 7 9 9 9 7 5 4 3 3 2 1 0 0 0 0 0 0 0 0 0 0 0 0 0 1 1
21 23 26 31 34 32 29 27 24 22 20 17 13 8 5 4 5 7 8 8 9 8 7 5 4 4 3 2 0 0 1 1 1 1 0 0 0 0 0 0 0 0 1
30 32 36 41 45 44 39 34 29 26 24 21 15 9 5 4 4 6 8 8 9 10 9 8 7 7 6 5 3 2 2 3 3 1 0 0 0 0 0 0 0 0 0
36 39 42 47 52 52 46 38 33 30 28 26 21 13 8 5 4 5 8 9 10 11 11 11 11 10 9 8 6 4 3 4 3 2 0 0 0 0 0 0 0 0 0
39 39 41 47 54 57 52 43 38 34 30 29 26 20 12 7 5 5 7 8 9 11 13 13 13 11 10 8 7 5 4 3 3 2 1 1 0 0 0 0 0 0 0
40 37 38 45 54 60 59 49 42 37 32 29 27 22 16 11 8 6 7 8 8 9 12 13 13 12 10 8 7 6 4 3 3 3 3 2 1 0 0 0 0 0 0
40 39 40 45 52 59 59 52 44 38 33 29 27 23 19 15 11 9 9 8 7 7 9 12 14 13 12 9 7 5 3 2 2 2 2 2 1 1 1 1 1 1 1
44 44 44 47 50 53 53 52 47 41 36 32 28 23 20 18 14 11 9 9 7 6 7 10 13 14 13 10 7 4 2 2 1 1 1 1 1 2 2 2 2 2 2
47 48 48 48 46 45 47 51 51 46 40 36 30 24 21 20 17 12 9 8 7 6 7 10 12 13 12 11 8 5 3 2 2 1 1 1 1 3 3 3 3 3 2
47 48 49 47 43 41 44 49 51 49 43 37 31 26 23 21 18 14 11 10 8 7 9 10 11 12 12 11 9 6 4 3 4 3 3 2 3 3 3 3 3 3 2
40 43 47 48 44 43 44 46 49 49 45 40 33 29 25 22 20 17 14 12 10 9 9 10 11 12 12 10 7 5 4 4 5 5 4 3 2 2 3 3 3 3 2
33 37 45 50 48 46 45 46 47 48 46 42 37 32 26 23 21 20 17 16 15 12 9 8 10 12 11 10 8 6 5 7 7 7 4 2 1 1 1 2 2 2 1
32 36 44 49 47 45 47 47 46 46 45 44 41 35 29 26 25 23 20 18 19 16 12 10 12 12 11 11 9 8 8 9 10 8 5 3 2 1 0 1 1 1 0
38 38 42 45 44 44 46 47 46 44 43 44 44 39 33 30 28 25 20 18 21 21 18 15 15 14 12 12 11 9 8 9 10 8 5 5 4 2 0 0 0 0 0
45 41 39 41 42 41 41 43 43 42 41 42 43 41 37 33 31 26 20 19 21 22 20 19 17 15 13 11 10 9 7 7 6 5 5 5 4 2 0 0 0 0 0
45 41 37 38 39 37 35 36 37 38 38 38 40 41 40 38 35 29 24 21 21 20 18 18 17 14 11 8 7 7 6 4 4 4 5 4 3 1 1 1 1 0 0
40 37 34 35 36 34 32 31 31 34 35 34 35 37 39 39 37 32 26 23 22 20 18 17 16 14 10 6 4 4 4 4 4 4 5 4 2 1 2 2 1 0 0
35 34 33 33 32 31 29 28 29 31 32 32 31 32 33 36 35 30 25 23 22 20 17 15 13 11 8 5 3 4 4 5 5 6 6 6 4 2 2 2 1 0 0
32 33 33 32 30 28 28 28 27 27 28 29 29 29 29 31 32 28 23 21 21 19 16 14 11 8 6 4 3 3 4 4 5 6 6 5 4 2 2 2 2 1 0
31 32 33 32 29 27 28 28 26 24 24 25 26 27 28 29 28 25 23 22 21 19 17 13 10 8 5 3 3 3 3 3 4 5 6 5 3 2 1 2 2 1 1
32 33 34 32 27 26 26 25 23 21 20 21 23 26 27 26 24 23 23 22 21 19 16 13 10 8 5 3 2 2 2 3 3 4 5 5 3 1 1 1 2 2 2
33 34 33 29 23 21 21 19 18 17 17 19 21 22 22 21 20 20 22 23 22 20 17 12 9 7 4 2 1 1 1 1 2 2 3 3 3 1 0 0 1 1 1
31 30 28 24 21 18 16 15 14 14 15 16 16 16 17 17 17 17 19 21 20 18 15 11 7 5 3 2 0 0 0 0 1 1 1 1 1 1 0 0 0 0 0
26 25 23 21 19 16 13 12 12 13 14 14 13 12 13 13 13 12 13 14 14 13 11 8 5 4 3 2 1 1 1 1 1 1 0 0 0 0 0 0 0 1 1
22 22 20 17 14 11 10 10 11 11 13 14 13 12 11 9 8 6 6 6 6 6 5 4 3 2 2 2 2 2 2 2 2 2 1 1 1 1 1 0 0 1 2
20 19 17 14 10 8 7 9 10 10 12 14 14 13 10 7 5 3 2 1 2 1 1 2 1 1 1 1 2 3 3 3 3 3 2 2 2 2 2 1 0 1 3

GEFSMW_con_prob3kmehi_240.txt.gz
EHI
3 3 3 3 2 2 3 3 2 1 1 2 2 3 2 1 1 1 1 1 1 1 1 1 1 1 1 1 0 0 0 0 0 0 0 0 0 0 0 0 0 0 0
4 4 4 4 3 4 4 3 1 1 2 3 3 2 1 0 1 1 1 1 2 2 2 2 2 2 2 2 1 1 1 0 0 0 0 0 0 0 0 0 0 0 0
7 7 7 7 6 5 4 3 2 2 3 4 4 3 2 2 2 2 1 2 3 3 3 4 5 5 4 4 3 3 2 1 0 0 0 0 0 0 0 0 0 0 0
13 12 11 10 8 5 4 5 4 3 2 3 5 6 6 4 3 3 2 2 3 3 4 5 6 6 6 5 5 5 3 1 0 0 0 0 0 0 0 0 0 0 0
17 16 13 12 9 6 5 6 5 2 2 3 5 8 8 5 4 3 3 3 2 3 3 3 4 5 4 4 5 6 4 1 0 0 0 0 0 0 0 0 0 0 0
20 18 15 12 11 9 6 5 3 2 3 5 7 9 8 6 5 4 3 3 2 2 1 1 1 2 3 3 4 5 4 1 0 0 0 0 0 0 0 0 0 0 0
20 19 16 13 13 11 7 4 4 5 6 9 11 11 9 8 7 6 5 3 2 2 1 0 1 2 3 3 4 4 3 1 0 0 0 0 0 0 0 0 0 0 1
19 19 18 17 16 13 9 7 8 9 9 11 13 13 11 9 8 8 7 5 4 4 2 2 2 3 3 3 4 3 2 1 0 0 0 0 0 0 0 0 1 1 2
20 20 20 19 17 13 11 12 14 13 12 13 13 12 10 9 9 9 8 7 6 6 5 4 3 2 3 3 3 2 1 0 0 0 0 0 0 0 0 1 2 3 3
20 20 19 18 16 13 12 14 16 15 13 13 11 9 8 8 9 9 8 7 7 7 7 6 5 4 3 2 1 1 0 0 0 0 1 1 1 1 1 2 3 3 3
18 18 18 15 14 13 13 16 17 14 11 9 8 7 8 10 11 9 7 6 6 6 7 8 6 6 4 2 0 0 1 1 1 2 4 4 3 1 1 2 2 3 3
17 17 15 13 13 15 17 18 18 15 12 10 8 7 8 11 12 10 7 5 4 5 6 8 7 6 4 1 0 1 2 3 3 4 6 6 4 2 1 1 2 2 2
16 15 13 11 11 14 18 18 17 17 16 14 11 8 8 10 11 10 9 7 4 4 5 7 7 5 3 1 0 2 3 4 5 6 6 6 5 4 2 1 1 1 1
13 12 12 11 11 12 14 15 14 16 18 18 15 12 10 10 10 11 11 9 6 5 6 7 6 4 1 0 0 2 3 4 5 5 5 5 5 4 3 3 2 0 0
12 12 13 12 11 12 13 13 13 16 20 20 18 15 13 13 12 10 11 11 8 6 7 7 5 3 1 0 0 1 2 3 3 3 3 4 4 4 3 3 1 0 0
13 12 12 13 14 16 17 16 14 17 20 21 19 18 18 18 15 12 12 12 10 8 9 9 7 4 1 0 0 1 1 2 2 2 3 3 4 3 3 2 0 0 0
15 12 11 13 16 18 20 18 16 17 18 19 19 20 21 20 17 14 14 14 13 12 13 13 10 5 2 1 1 0 0 1 2 2 3 3 3 3 2 1 0 1 1
15 12 11 14 16 17 18 16 15 15 15 16 18 20 21 20 17 17 17 17 17 17 17 16 12 7 3 2 1 0 0 1 2 3 3 3 3 1 1 0 0 1 2
13 11 12 14 15 15 14 13 13 13 13 14 18 20 20 19 18 20 20 19 19 19 18 15 11 8 5 2 0 0 1 2 3 3 3 2 2 1 0 0 0 1 2
10 10 12 14 14 12 10 9 9 9 11 14 17 20 21 20 21 22 21 19 18 16 14 11 9 8 6 3 1 1 1 2 2 2 1 1 1 0 0 0 0 0 1
11 11 13 13 11 9 6 5 5 6 9 13 16 19 21 21 22 21 19 18 15 12 10 9 8 7 6 4 2 1 1 1 1 1 0 0 0 0 0 0 0 0 0
14 14 14 12 9 6 4 4 4 5 8 12 14 17 19 19 19 19 18 16 13 10 10 10 9 8 6 4 2 1 0 0 0 0 0 0 0 0 0 0 0 0 0
15 17 17 14 10 6 6 6 4 5 8 10 12 14 15 16 16 16 16 14 12 11 11 12 10 9 7 4 2 0 0 0 0 0 0 0 0 0 0 0 0 0 0
16 18 19 17 12 8 6 6 4 5 8 9 10 10 11 11 11 11 12 11 9 10 11 11 10 9 7 4 2 1 1 1 0 0 0 0 0 0 0 0 0 0 0
16 17 18 17 13 9 6 5 5 7 9 10 9 8 6 6 7 6 6 5 5 5 6 7 7 5 4 3 2 2 2 2 0 1 1 1 1 1 1 1 0 0 0
16 16 16 15 12 9 6 6 6 7 9 10 9 6 4 4 5 4 2 1 1 1 2 3 3 2 1 1 1 1 2 1 0 1 2 2 2 2 2 2 1 0 0

GEFSMW_con_prob3kmehi_246.txt.gz
EHI
9 9 8 8 8 12 18 20 17 15 15 13 9 7 5 4 3 3 3 4 4 4 3 3 4 6 7 8 8 8 8 8 7 5 3 2 4 7 8 7 6 4 3
11 10 10 10 11 15 20 22 21 19 18 16 11 8 6 5 4 3 3 3 3 4 4 4 5 7 8 9 9 9 8 8 8 6 4 2 3 6 7 6 5 4 3
11 12 13 13 13 16 20 23 25 25 23 19 14 11 9 8 7 5 4 3 4 4 5 6 6 7 8 8 8 7 7 9 9 9 6 4 3 5 6 5 5 5 5
10 11 13 14 14 14 18 24 29 30 26 21 17 14 12 11 9 8 7 7 7 6 6 6 6 5 4 5 4 3 5 9 10 9 7 5 4 5 6 6 6 6 6
8 10 13 14 14 13 16 22 30 32 28 23 19 17 15 13 11 11 11 10 9 7 6 6 6 3 2 2 1 2 4 8 10 9 6 3 3 4 5 5 5 6 6
12 13 14 15 15 14 14 19 27 29 26 22 20 19 18 15 13 14 13 11 8 7 7 7 7 5 3 2 2 4 5 6 8 8 5 2 1 2 3 3 4 5 6
18 18 16 17 17 16 16 19 23 25 22 19 20 21 20 17 15 13 12 9 8 7 8 9 8 7 6 4 5 6 6 5 6 5 4 2 1 2 3 4 4 5 6
20 20 18 17 17 17 18 19 22 23 21 18 19 22 21 17 14 12 11 10 9 8 8 9 9 9 8 7 8 8 7 6 6 4 2 2 3 4 5 6 6 6 7
16 18 18 17 17 17 18 19 20 20 20 19 19 21 19 17 15 12 11 11 11 8 7 8 9 10 9 10 11 10 8 8 7 5 4 5 6 6 7 8 10 10 10
15 16 17 18 18 17 19 20 20 19 18 19 19 17 17 16 14 12 11 11 10 8 7 8 10 10 11 13 14 12 9 8 7 5 6 8 8 7 8 10 13 14 14
16 16 18 20 22 23 23 22 21 19 18 18 16 14 13 11 9 8 8 9 10 9 8 9 10 11 12 14 15 12 9 8 7 5 7 9 9 9 11 12 14 16 16
19 19 22 28 32 31 28 25 22 19 18 17 14 12 10 7 5 4 5 8 10 9 7 8 10 11 12 14 13 10 9 8 6 5 8 9 11 13 14 14 14 14 14
24 25 30 38 40 37 32 27 22 19 17 16 14 13 11 10 8 6 7 10 10 8 7 8 10 11 12 14 13 12 10 8 5 6 10 11 14 16 17 16 15 14 13
29 31 37 44 45 41 36 30 23 19 19 19 18 17 17 17 15 15 15 14 11 9 9 11 12 12 13 14 15 14 11 7 4 6 10 12 14 15 16 16 16 15 13
32 33 40 48 51 47 41 34 28 25 26 27 23 22 22 21 20 21 21 19 15 13 14 15 15 15 15 14 14 14 11 9 7 8 10 11 12 12 11 11 11 12 11
32 34 40 49 53 49 44 38 34 33 33 31 26 24 24 22 21 22 22 22 20 19 19 19 19 18 16 13 10 9 10 11 12 12 12 12 11 10 7 6 6 6 7
33 34 38 44 47 46 43 39 36 37 37 32 26 24 22 20 19 19 21 23 24 25 24 24 23 22 18 12 6 4 7 12 15 16 15 14 12 10 7 6 5 4 3
31 31 32 36 39 41 42 37 34 37 38 32 26 24 22 20 19 20 23 24 26 28 30 30 30 28 21 11 3 2 6 12 15 16 16 15 13 10 8 8 8 5 2
29 27 25 28 33 37 40 36 33 36 38 33 28 25 24 23 23 24 25 25 26 29 30 30 31 30 21 10 2 3 8 12 13 13 13 13 11 8 6 8 8 6 4
31 29 27 30 34 38 40 38 35 36 36 32 28 25 24 24 26 27 27 25 26 27 27 26 27 26 19 9 2 4 10 13 10 9 9 9 8 4 3 6 7 5 4
37 35 34 36 39 41 41 40 37 36 35 32 28 25 24 25 26 28 28 27 27 28 27 25 24 22 16 9 4 4 9 12 10 8 8 8 5 2 1 2 4 3 2
39 38 37 37 38 39 39 37 34 34 35 34 30 27 26 26 26 28 29 29 28 28 26 23 21 18 13 10 7 4 5 8 10 9 9 8 3 0 0 0 1 1 0
38 38 36 33 33 33 34 33 31 32 34 34 30 27 27 27 27 28 28 28 27 25 22 20 18 15 12 10 8 4 2 4 7 9 8 5 2 0 0 0 0 0 0
38 37 35 31 30 31 32 31 31 32 31 30 27 24 25 27 28 27 26 25 24 22 20 19 17 13 11 10 9 7 5 4 6 8 8 5 2 1 1 1 1 1 1
37 37 36 33 30 31 32 31 30 29 27 25 23 20 20 23 24 23 21 18 17 16 16 16 14 11 9 9 8 8 7 6 7 8 8 6 5 4 4 4 3 2 2
37 36 36 34 32 31 31 30 28 26 24 23 20 16 17 20 21 19 15 11 9 8 10 11 10 8 8 7 6 6 6 7 7 7 8 7 7 6 6 5 4 3 3

GEFSMW_con_prob3kmehi_252.txt.gz
EHI
27 25 22 24 35 49 57 54 43 34 29 25 24 24 22 19 20 23 24 22 19 17 15 14 17 17 15 14 14 15 17 19 18 15 12 13 18 21 22 21 20 18 18
33 33 30 29 37 49 56 53 46 37 31 27 26 24 21 18 20 25 26 22 19 16 14 14 16 17 17 16 17 19 18 17 15 11 9 10 14 18 19 20 20 19 18
40 42 41 39 41 48 52 54 53 44 36 32 29 25 21 19 22 28 29 25 19 15 14 14 16 17 17 17 19 21 19 16 14 10 8 8 11 13 14 16 19 19 18
42 46 48 46 44 46 50 56 60 55 47 40 33 29 25 23 24 28 30 26 20 17 16 16 17 17 16 15 16 17 18 17 14 11 9 9 10 12 13 14 17 18 17
44 47 51 51 47 45 50 59 63 62 57 48 40 35 30 26 24 25 27 24 21 20 20 20 21 19 15 13 13 14 15 15 12 9 8 9 10 11 12 14 14 15 14
47 49 53 55 50 47 52 60 65 66 62 54 46 39 34 31 29 27 25 22 20 20 21 23 25 23 17 15 14 13 13 12 11 9 8 9 9 10 12 14 14 12 12
49 51 54 57 54 50 54 62 67 69 65 56 48 43 38 35 34 31 26 22 19 19 21 23 25 24 20 18 17 16 15 15 14 12 11 10 10 11 13 15 14 11 9
48 49 52 57 57 56 58 63 69 71 66 57 49 44 39 36 34 32 27 23 19 17 18 22 24 24 21 19 20 19 18 20 21 18 15 14 15 15 15 17 15 11 8
41 43 48 55 59 61 61 63 66 67 64 58 51 44 38 36 34 32 28 23 19 16 19 22 23 22 20 19 21 21 21 24 26 24 21 21 20 18 18 18 16 12 10
30 34 42 51 58 62 63 62 61 60 60 57 52 44 40 38 37 34 29 23 19 19 22 24 23 21 19 19 21 23 23 25 27 27 26 26 25 22 19 18 17 16 14
25 28 39 51 58 62 63 61 58 55 55 56 53 48 44 41 38 35 30 24 22 22 24 26 25 24 23 23 24 25 25 24 26 27 27 26 25 23 20 17 17 18 17
27 31 42 56 63 65 64 60 56 52 53 54 53 50 47 43 38 34 30 26 23 22 23 26 28 28 27 27 28 29 27 24 24 25 24 22 21 21 20 19 18 18 17
36 41 52 63 69 70 66 60 55 53 52 53 54 53 48 40 34 32 31 28 25 24 25 27 30 31 30 30 31 31 29 27 26 25 23 21 21 21 21 20 19 17 15
45 53 62 69 73 71 67 63 58 55 53 53 56 54 45 37 34 34 34 32 29 28 30 30 31 32 31 30 30 30 30 29 28 27 25 22 21 20 20 19 19 17 15
48 56 64 70 73 70 68 65 59 55 54 53 54 52 44 38 38 38 37 36 34 33 34 34 33 32 30 28 27 27 27 27 27 26 24 21 19 17 16 15 15 16 16
47 52 61 68 71 69 67 64 58 54 54 52 52 51 44 40 39 37 37 37 37 37 37 36 34 32 28 23 20 21 23 24 24 23 21 19 16 13 11 10 9 10 12
47 51 58 65 68 66 63 60 56 54 54 52 51 48 43 39 37 35 34 35 37 39 38 36 34 31 26 20 15 14 18 22 23 22 19 17 14 12 11 9 8 7 7
50 52 57 62 63 61 59 56 55 54 53 51 48 43 39 38 37 36 36 35 36 38 38 36 34 31 25 18 11 12 18 22 23 22 19 18 15 12 11 12 12 10 9
51 52 54 56 56 56 56 55 55 56 54 51 47 41 39 39 39 39 38 37 37 38 38 37 35 33 27 16 8 12 20 23 22 21 20 18 14 10 9 11 14 13 11
46 49 49 50 52 54 55 57 57 56 53 50 47 44 41 40 39 39 38 37 37 38 37 37 37 36 29 17 8 10 19 22 21 20 17 13 10 6 5 9 12 10 8
41 45 50 52 53 54 55 57 57 54 50 49 47 46 42 38 35 36 36 36 36 36 36 36 36 34 27 17 8 7 12 17 19 19 14 8 5 2 2 5 8 6 4
39 44 52 56 55 54 55 57 55 52 49 48 46 45 41 36 33 33 33 33 33 34 35 36 34 29 23 15 8 4 5 9 14 15 10 4 1 0 0 2 3 3 2
41 43 49 53 53 51 53 56 56 53 51 48 46 44 40 35 33 31 30 30 31 33 34 34 31 26 19 14 10 5 2 3 6 8 4 1 0 0 1 1 1 2 3
44 45 46 49 48 47 49 53 56 55 52 47 44 43 39 35 32 30 27 27 29 30 30 29 27 22 18 15 12 8 6 4 5 5 4 3 2 3 4 4 3 3 4
46 47 47 46 45 44 45 49 53 53 48 44 40 38 36 33 31 27 23 22 23 23 22 23 22 19 16 13 10 9 9 8 8 8 9 8 7 8 10 10 8 6 5
47 48 46 45 44 43 45 48 51 50 45 40 37 35 33 33 30 25 21 19 17 15 15 17 20 18 13 9 7 8 9 9 9 10 12 11 10 11 13 12 10 7 6